Regional Weather Roundup
Issued by NWS

Home | Current Version | Previous Version | Text Only | Print | Product List | Glossary Off
Versions: 1 2 3 4 5 6 7 8 9 10 11 12 13 14 15 16 17 18 19 20 21 22 23 24 25 26 27 28 29 30 31 32 33 34 35 36 37 38 39 40 41 42 43 44 45 46 47 48 49 50

000
ASUS43 KLMK 182210
RWRKY
KENTUCKY REGIONAL WEATHER ROUNDUP
NATIONAL WEATHER SERVICE LOUISVILLE KY
500 PM EST SAT FEB 18 2017

NOTE "FAIR" INDICATES FEW OR NO CLOUDS BELOW 12,000 FEET
WITH NO SIGNIFICANT WEATHER AND/OR OBSTRUCTIONS TO VISIBILITY.

KYZ001>023-026-027-061>063-070>075-182300-
WESTERN AND SOUTH CENTRAL KENTUCKY

CITY           SKY/WX    TMP DP  RH WIND       PRES   REMARKS
PADUCAH        LGT RAIN  54  51  90 W3        29.88R FOG
HENDERSON      CLOUDY    52  48  87 CALM      29.88R
OWENSBORO      LGT RAIN  52  50  93 S5        29.89R
HOPKINSVILLE   CLOUDY    53  50  88 S3        29.89R
BOWLING GREEN  CLOUDY    54  48  80 SW5       29.90S
GLASGOW        CLOUDY    51  45  78 S3        29.91R
$$

KYZ024-025-028>034-038-045-046-053-182300-
NORTH CENTRAL KENTUCKY

CITY           SKY/WX    TMP DP  RH WIND       PRES   REMARKS
LOUISVILLE/SDF LGT RAIN  53  48  83 S6        29.87R
LOUISVILLE/LOU LGT RAIN  53  47  79 SW5       29.88R
FORT KNOX      LGT RAIN  50  50 100 S6        29.87R
$$

KYZ035>037-039>044-047>052-055>060-089>105-182300-
NORTHEAST KENTUCKY

CITY           SKY/WX    TMP DP  RH WIND       PRES   REMARKS
LEXINGTON      CLOUDY    50  45  83 S5        29.88S
COVINGTON      CLOUDY    56  43  61 S13       29.82S
FRANKFORT      CLOUDY    51  45  79 S5        29.87S
$$

KYZ054-064>069-076>088-106>120-182300-
SOUTHEAST KENTUCKY

CITY           SKY/WX    TMP DP  RH WIND       PRES   REMARKS
JACKSON        LGT RAIN  50  42  74 CALM      29.87F
LONDON         CLOUDY    50  45  83 SE5       29.87F
SOMERSET       CLOUDY    50  45  81 SW5       29.91R
MIDDLESBORO    CLOUDY    50  46  87 S5        29.91S
MONTICELLO     CLOUDY    52  46  80 W8        29.92R
$$





USA.gov is the U.S. government's official web portal to all federal, state and local government web resources and services.